Tucumcari, NM

11:37 AM MDT on October 21, 2017 (GMT -0600)
Tucumcari Municipal

Weather History for KTCC - August, 2013

Change the Weather History Date:

Wednesday, August 28, 2013

  Actual Average Record
Temperature  
Mean Temperature 82 °F -  
Max Temperature 93 °F 88 °F 101 °F (1922)
Min Temperature 70 °F 61 °F 49 °F (1964)
Cooling Degree Days 16    
Growing Degree Days 32 (Base 50)    
Moisture  
Dew Point 55 °F    
Average Humidity 42    
Maximum Humidity 63    
Minimum Humidity 25    
Precipitation  
Precipitation 0.00 in - - ()
Sea Level Pressure  
Sea Level Pressure 29.92 in    
Wind  
Wind Speed 11 mph (SSW)    
Max Wind Speed 20 mph    
Max Gust Speed 25 mph    
Visibility 10 miles    
Events      
Averages and records for this station are not official NWS values.
T = Trace of Precipitation, MM = Missing Value Source: NWS Daily Summary

Daily Weather History Graph

Daily Weather History Graph

Search for Another Location

Airport or City:

Trip Planner

Search our weather history database for the weather conditions in past years. The results will help you decide how hot, cold, wet, or windy it might be!

Date:

Astronomy

Aug. 28, 2013 Rise Set
Actual Time 6:24 AM MDT 7:26 PM MDT
Civil Twilight 5:58 AM MDT 7:52 PM MDT
Nautical Twilight 5:27 AM MDT 8:23 PM MDT
Astronomical Twilight 4:55 AM MDT 8:55 PM MDT
Moon No Moon Rise 1:59 PM MDT (8/28)
Length of Visible Light 13h 54m
Length of Day
13h 02m
Waning Gibbous, 47% of the Moon is Illuminated
Aug 28
Waning Gibbous
Sep 5
New
Sep 12
First Quarter
Sep 19
Full
Sep 26
Last Quarter

Hourly Weather History & Observations

Time (MDT) Temp. Heat Index Dew Point Humidity Pressure Visibility Wind Dir Wind Speed Gust Speed Precip Events Conditions
12:53 AM 73.9 °F - 54.0 °F 50% 29.91 in 10.0 mi South 9.2 mph - N/A   Clear
1:53 AM 71.1 °F - 53.1 °F 53% 29.91 in 10.0 mi SW 8.1 mph - N/A   Clear
2:53 AM 70.0 °F - 53.1 °F 55% 29.90 in 10.0 mi SSW 6.9 mph - N/A   Clear
3:53 AM 73.0 °F - 54.0 °F 51% 29.89 in 10.0 mi SSW 10.4 mph - N/A   Clear
4:53 AM 71.1 °F - 55.0 °F 57% 29.91 in 10.0 mi SW 9.2 mph - N/A   Clear
5:53 AM 70.0 °F - 55.9 °F 61% 29.92 in 10.0 mi SW 6.9 mph - N/A   Clear
6:53 AM 70.0 °F - 57.0 °F 63% 29.94 in 10.0 mi SSW 5.8 mph - N/A   Clear
7:53 AM 73.9 °F - 59.0 °F 59% 29.95 in 10.0 mi SW 15.0 mph - N/A   Clear
8:53 AM 79.0 °F - 59.0 °F 50% 29.96 in 10.0 mi SW 12.7 mph - N/A   Clear
9:53 AM 84.0 °F 83.8 °F 59.0 °F 43% 29.96 in 10.0 mi SSW 19.6 mph - N/A   Clear
10:53 AM 87.1 °F 85.9 °F 57.0 °F 36% 29.95 in 10.0 mi SW 15.0 mph 25.3 mph N/A   Clear
11:53 AM 89.1 °F 87.3 °F 55.9 °F 32% 29.94 in 10.0 mi SW 16.1 mph 25.3 mph N/A   Clear
12:53 PM 89.1 °F 86.7 °F 53.1 °F 29% 29.93 in 10.0 mi SW 11.5 mph 21.9 mph N/A   Clear
1:53 PM 91.9 °F - 52.0 °F 26% 29.92 in 10.0 mi SW 15.0 mph 24.2 mph N/A   Partly Cloudy
2:53 PM 90.0 °F - 52.0 °F 27% 29.91 in 10.0 mi SSW 12.7 mph - N/A   Clear
3:53 PM 91.0 °F - 52.0 °F 26% 29.88 in 10.0 mi SSW 9.2 mph - N/A   Clear
4:53 PM 93.0 °F - 52.0 °F 25% 29.86 in 10.0 mi SSW 9.2 mph - N/A   Mostly Cloudy
5:53 PM 91.0 °F - 51.1 °F 25% 29.87 in 10.0 mi South 15.0 mph - N/A   Partly Cloudy
6:53 PM 88.0 °F - 52.0 °F 29% 29.89 in 10.0 mi South 12.7 mph - N/A   Clear
7:53 PM 84.0 °F 82.6 °F 54.0 °F 35% 29.91 in 10.0 mi South 9.2 mph - N/A   Clear
8:53 PM 82.9 °F 81.8 °F 53.1 °F 36% 29.91 in 10.0 mi South 10.4 mph - N/A   Clear
9:53 PM 81.0 °F 80.7 °F 55.0 °F 41% 29.93 in 10.0 mi South 13.8 mph - N/A   Clear
10:53 PM 79.0 °F - 55.9 °F 45% 29.94 in 10.0 mi South 11.5 mph - N/A   Clear
11:53 PM 78.1 °F - 55.9 °F 46% 29.94 in 10.0 mi SSW 11.5 mph - N/A   Clear